Location: F?ge?el
(45.8833°N, 22.5833°E)
Time: 05:00:15
(UTC+00:00)

Cosmos 2061 Rocket - Pass Details

Date: 17 November 2025
Orbit: 964 x 1013 km, 82.9° (Epoch: 04 December)

Event Time Altitude Azimuth Distance (km) Brightness Sun altitude
Rises 15:16:24 0° 172° (S) 3,695 7.2 -4.0°
Reaches altitude 10° 15:18:58 10° 168° (SSE) 2,743 6.5 -4.4°
Maximum altitude 15:25:05 55° 92° (E) 1,165 4.2 -5.4°
Drops below altitude 10° 15:31:09 10° 16° (NNE) 2,730 6.0 -6.4°
Sets 15:33:41 0° 13° (NNE) 3,676 6.7 -6.8°
